N3FYI-5 Weather Reports


time (UTC)temp
F
wind
direction
speed
knots
gust
knots
rain 1hr
in
rain 24hr
in
rain mn
in
humidity
%
barometer
mb
20260902165515 71 0 0.0 0.0 0.00 0.28 0.18 20 1024.3
20260902164713 71 0 0.0 0.9 0.00 0.28 0.18 16 1024.1
20260902163915 71 0 0.0 0.9 0.00 0.28 0.18 13 1024.2
20260902163116 71 0 0.0 0.9 0.00 0.28 0.18 14 1024.5
20260902162324 70 0 0.0 0.0 0.00 0.28 0.18 16 1024.6
20260902161521 70 0 0.0 0.0 0.00 0.28 0.18 17 1025.0
20260902160713 70 0 0.0 1.7 0.00 0.28 0.18 17 1025.2
20260902155115 69 0 0.0 0.9 0.00 0.28 0.18 18 1025.1
20260902154315 69 0 0.0 0.0 0.00 0.28 0.18 19 1025.2
20260902153517 69 0 0.0 0.0 0.00 0.28 0.18 19 1025.2
20260902152713 69 0 0.0 0.0 0.00 0.28 0.18 19 1025.2
20260902151230 68 0 0.0 0.0 0.00 0.28 0.18 20 1024.8
20260902150432 68 0 0.0 0.0 0.00 0.28 0.18 20 1024.9
20260902145628 67 0 0.0 0.0 0.00 0.28 0.18 20 1025.0
20260902144828 67 0 0.0 0.0 0.01 0.28 0.18 20 1025.2
20260902144033 67 0 0.0 0.0 0.03 0.28 0.18 20 1025.3
20260902143229 67 0 0.0 0.0 0.06 0.28 0.18 20 1025.6
20260902142436 67 0 0.0 0.0 0.09 0.28 0.18 20 1025.7
20260902141627 67 0 0.0 0.0 0.12 0.28 0.18 20 1025.4
20260902140828 67 0 0.0 0.0 0.13 0.28 0.18 20 1025.5
20260902140029 67 0 0.0 0.0 0.15 0.28 0.18 20 1025.4
20260902135231 67 0 0.0 0.0 0.16 0.28 0.18 20 1024.9
20260902134434 67 0 0.0 0.0 0.15 0.26 0.16 20 1024.7
20260902133628 66 0 0.0 0.0 0.14 0.24 0.14 20 1025.4
20260902132841 66 0 0.0 0.0 0.10 0.20 0.10 20 1025.7
20260902132032 66 0 0.0 0.0 0.08 0.18 0.08 20 1025.5
20260902131229 66 0 0.0 0.0 0.06 0.16 0.06 20 1025.4
20260902130428 66 0 0.0 0.0 0.04 0.14 0.04 20 1025.4
20260902125628 66 0 0.0 0.0 0.02 0.12 0.02 20 1025.3
20260902124834 66 0 0.0 0.0 0.01 0.11 0.01 20 1025.3
20260902124030 66 0 0.0 0.0 0.00 0.10 0.00 20 1025.0
20260902122611 66 0 0.0 0.0 0.00 0.10 0.00 20 1024.2
20260902121812 66 0 0.0 0.0 0.00 0.10 0.00 20 1024.2
20260902121011 66 0 0.0 0.0 0.00 0.10 0.00 20 1024.1
20260902120211 66 0 0.0 0.0 0.00 0.10 0.00 20 1023.9
20260902115410 66 0 0.0 0.0 0.00 0.10 0.00 20 1023.8
20260902114612 66 0 0.0 0.0 0.00 0.10 0.00 20 1023.9
20260902113811 66 0 0.0 0.0 0.00 0.10 0.00 21 1024.0
20260902113014 66 0 0.0 0.0 0.00 0.10 0.00 21 1023.6
20260902112217 65 0 0.0 0.0 0.00 0.10 0.00 20 1023.7
20260902111412 65 0 0.0 0.0 0.00 0.10 0.00 20 1023.8
20260902110611 65 0 0.0 0.0 0.00 0.10 0.00 20 1023.7
20260902105810 65 0 0.0 0.0 0.00 0.10 0.00 20 1023.5
20260902105016 65 0 0.0 0.0 0.00 0.10 0.00 20 1023.5
20260902104211 65 0 0.0 0.0 0.00 0.10 0.00 20 1023.7
20260902103414 64 0 0.0 0.0 0.00 0.10 0.00 20 1023.7
20260902102611 64 0 0.0 0.0 0.00 0.10 0.00 20 1023.6
20260902101814 64 0 0.0 0.0 0.00 0.10 0.00 20 1023.7
20260902101013 64 0 0.0 0.0 0.00 0.10 0.00 20 1023.9
20260902100211 65 0 0.0 0.0 0.00 0.10 0.00 19 1023.8
20260902095410 65 0 0.0 0.0 0.00 0.10 0.00 19 1023.8
20260902094135 65 0 0.0 0.0 0.00 0.10 0.00 19 1024.0
20260902093335 65 0 0.0 0.0 0.00 0.10 0.00 19 1023.9
20260902092554 65 0 0.0 0.0 0.00 0.10 0.00 19 1024.0
20260902091737 65 0 0.0 0.0 0.00 0.10 0.00 19 1024.0
20260902090936 65 0 0.0 0.0 0.00 0.10 0.00 19 1024.1
20260902090135 65 0 0.0 0.0 0.00 0.10 0.00 19 1024.4
20260902085335 65 0 0.0 0.0 0.00 0.10 0.00 19 1024.4
20260902084544 65 0 0.0 0.0 0.00 0.10 0.00 19 1024.3
20260902083743 65 0 0.0 0.0 0.00 0.10 0.00 19 1024.3
20260902082937 65 0 0.0 0.0 0.00 0.10 0.00 18 1024.3
20260902082134 65 0 0.0 0.0 0.00 0.10 0.00 19 1024.2
20260902081340 65 0 0.0 0.0 0.00 0.10 0.00 19 1024.3
20260902080543 65 0 0.0 0.0 0.00 0.10 0.00 18 1024.1
20260902075736 65 0 0.0 0.0 0.00 0.10 0.00 18 1024.2
20260902074934 65 0 0.0 0.0 0.00 0.10 0.00 18 1024.3
20260902074135 65 0 0.0 0.0 0.00 0.10 0.00 18 1024.3
20260902073339 65 0 0.0 0.0 0.00 0.10 0.00 18 1024.3
20260902072550 65 0 0.0 0.0 0.00 0.10 0.00 18 1024.3
20260902071741 65 0 0.0 0.0 0.00 0.10 0.00 18 1024.3
20260902070934 65 0 0.0 0.0 0.00 0.10 0.00 18 1024.4
20260902065749 65 0 0.0 0.0 0.00 0.10 0.00 18 1024.4
20260902064949 65 0 0.0 0.0 0.00 0.10 0.00 18 1024.4
20260902064149 65 0 0.0 0.0 0.00 0.10 0.00 18 1024.4
20260902063351 65 0 0.0 0.0 0.00 0.10 0.00 18 1024.5
20260902062549 65 0 0.0 0.0 0.00 0.10 0.00 18 1024.4
20260902061749 66 0 0.0 0.0 0.00 0.10 0.00 17 1024.5
20260902060949 66 0 0.0 0.0 0.00 0.10 0.00 17 1024.6
20260902060150 66 0 0.0 0.0 0.00 0.10 0.00 17 1024.6
20260902055349 66 0 0.0 0.0 0.00 0.10 0.00 17 1024.7
20260902054553 66 0 0.0 0.0 0.00 0.10 0.00 17 1024.7
20260902053749 66 0 0.0 0.0 0.00 0.10 0.00 17 1024.7
20260902052949 66 0 0.0 0.0 0.00 0.10 0.00 17 1024.8
20260902052151 66 0 0.0 0.9 0.00 0.10 0.00 17 1024.9
20260902051351 66 0 0.0 0.9 0.00 0.10 0.00 17 1024.8
20260902050548 66 0 0.0 0.0 0.00 0.10 0.00 17 1024.7
20260902045749 66 0 0.0 0.9 0.00 0.10 0.00 17 1024.6
20260902044949 66 0 0.0 0.9 0.00 0.10 0.00 17 1024.6
20260902044149 67 0 0.0 0.0 0.00 0.10 0.00 17 1024.4
20260902043349 67 0 0.0 0.0 0.00 0.10 0.00 17 1024.2
20260902042549 67 0 0.0 0.0 0.00 0.10 0.00 17 1024.1
20260902041431 67 0 0.0 0.0 0.00 0.10 0.00 17 1024.0
20260902040631 67 0 0.0 0.0 0.00 0.10 0.00 16 1024.0
20260902035837 67 0 0.0 0.0 0.00 0.10 0.10 17 1023.9
20260902035030 66 0 0.0 0.0 0.00 0.10 0.10 17 1023.8
20260902034230 66 0 0.0 0.0 0.00 0.10 0.10 18 1023.8
20260902033431 66 0 0.0 0.0 0.00 0.10 0.10 17 1023.8
20260902032630 66 0 0.0 0.0 0.00 0.10 0.10 17 1023.7
20260902031830 67 0 0.0 0.0 0.00 0.10 0.10 17 1023.8
20260902031031 67 0 0.0 0.0 0.00 0.10 0.10 17 1023.6
20260902030233 67 0 0.0 0.0 0.00 0.10 0.10 17 1023.7
20260902025441 67 0 0.0 0.0 0.00 0.10 0.10 17 1023.7
20260902024631 67 0 0.0 0.0 0.00 0.10 0.10 17 1023.7
20260902023831 67 0 0.0 0.0 0.00 0.10 0.10 17 1023.8
20260902023031 67 0 0.0 0.0 0.00 0.10 0.10 18 1023.9
20260902022230 67 0 0.0 0.9 0.00 0.10 0.10 18 1024.0
20260902021434 67 0 0.0 0.0 0.00 0.10 0.10 17 1024.0
20260902020630 67 0 0.0 0.0 0.00 0.10 0.10 16 1023.9
20260902015829 67 0 0.0 0.0 0.00 0.10 0.10 17 1023.8
20260902015030 67 0 0.0 0.0 0.00 0.10 0.10 18 1023.8
20260902014230 67 0 0.0 0.0 0.00 0.10 0.10 18 1023.8
20260902013112 67 0 0.0 0.0 0.00 0.10 0.10 18 1023.7
20260902012311 67 0 0.0 0.0 0.00 0.10 0.10 19 1023.6
20260902011512 67 0 0.0 0.0 0.00 0.10 0.10 19 1023.4
20260902010714 67 0 0.0 0.0 0.00 0.10 0.10 19 1023.4
20260902005914 67 0 0.0 0.0 0.00 0.10 0.10 19 1023.3
20260902005112 67 0 0.0 0.0 0.00 0.10 0.10 20 1023.1
20260902004310 67 0 0.0 0.0 0.00 0.10 0.10 20 1022.9
20260902003511 67 0 0.0 0.0 0.00 0.10 0.10 20 1023.1
20260902002711 67 0 0.0 0.0 0.00 0.10 0.10 22 1023.1
20260902001911 67 0 0.0 0.0 0.00 0.10 0.10 23 1022.9
20260902001111 67 0 0.0 0.0 0.00 0.10 0.10 25 1022.7
20260902000330 67 0 0.0 0.0 0.00 0.10 0.10 26 1022.4
20260901235514 67 0 0.0 0.0 0.00 0.10 0.10 27 1022.2
20260901234710 67 0 0.0 0.0 0.00 0.10 0.10 30 1022.1
20260901233111 67 0 0.0 0.0 0.00 0.10 0.10 33 1021.9
20260901232311 68 0 0.0 0.0 0.00 0.10 0.10 33 1021.5
20260901231511 68 0 0.0 0.0 0.00 0.10 0.10 35 1021.5
20260901230711 68 0 0.0 0.0 0.02 0.10 0.10 39 1021.7
20260901225911 68 0 0.0 0.0 0.02 0.10 0.10 45 1021.8
20260901224536 68 0 0.0 0.9 0.02 0.10 0.10 52 1021.6
20260901223736 68 0 0.0 0.0 0.08 0.10 0.10 64 1021.7
20260901222936 69 0 0.0 0.0 0.10 0.10 0.10 68 1021.5
20260901222139 70 0 0.0 0.0 0.10 0.10 0.10 70 1021.7
20260901221349 71 0 0.0 0.9 0.10 0.10 0.10 79 1021.6
20260901220536 72 0 0.0 0.9 0.08 0.08 0.08 76 1021.6
20260901215738 73 0 0.0 0.9 0.08 0.08 0.08 78 1021.6
20260901214136 78 0 0.0 3.5 0.06 0.06 0.06 82 1021.7
20260901212537 83 0 0.0 0.9 0.00 0.00 0.00 75 1021.1
20260901211736 84 0 0.0 1.7 0.00 0.00 0.00 71 1020.6
20260901210935 83 0 0.0 3.5 0.00 0.00 0.00 73 1020.8
20260901210138 84 0 0.0 0.0 0.00 0.00 0.00 73 1020.8
20260901205345 84 0 0.0 0.0 0.00 0.00 0.00 72 1020.7
20260901204536 83 52 0.9 2.6 0.00 0.00 0.00 76 1020.9
20260901203738 82 0 0.0 0.0 0.00 0.00 0.00 75 1021.2
20260901202936 82 0 0.0 0.9 0.00 0.00 0.00 75 1020.9
20260901202145 82 0 0.0 2.6 0.00 0.00 0.00 77 1021.1
20260901201337 82 0 0.0 0.9 0.00 0.00 0.00 77 1021.2
20260901200311 82 0 0.0 0.9 0.00 0.00 0.00 75 1021.3
20260901195515 82 0 0.0 0.9 0.00 0.00 0.00 75 1021.3
20260901194708 82 0 0.0 4.3 0.00 0.00 0.00 72 1021.4
20260901193909 83 0 0.0 2.6 0.00 0.00 0.00 73 1021.4
20260901193111 83 0 0.0 3.5 0.00 0.00 0.00 70 1021.5
20260901192309 84 0 0.0 0.9 0.00 0.00 0.00 70 1021.6
20260901191509 85 0 0.0 0.9 0.00 0.00 0.00 71 1021.4
20260901190709 85 0 0.0 0.9 0.00 0.00 0.00 71 1021.6
20260901185909 85 0 0.0 0.9 0.00 0.00 0.00 70 1021.5
20260901185111 84 0 0.0 1.7 0.00 0.00 0.00 71 1021.6
20260901184308 83 0 0.0 1.7 0.00 0.00 0.00 73 1021.7
20260901183508 83 0 0.0 1.7 0.00 0.00 0.00 75 1021.8
20260901182709 82 0 0.0 0.9 0.00 0.00 0.00 76 1021.7
20260901181914 82 0 0.0 1.7 0.00 0.00 0.00 76 1021.8
20260901181109 82 0 0.0 1.7 0.00 0.00 0.00 79 1021.7
20260901180309 81 0 0.0 2.6 0.00 0.00 0.00 77 1021.7
20260901175509 81 0 0.0 2.6 0.00 0.00 0.00 78 1021.8
20260901174708 81 0 0.0 2.6 0.00 0.00 0.00 79 1021.8
20260901173911 80 0 0.0 1.7 0.00 0.00 0.00 79 1021.9
20260901173109 81 0 0.0 1.7 0.00 0.00 0.00 79 1021.9
20260901172310 81 0 0.0 0.9 0.00 0.00 0.00 77 1021.8
20260901170753 81 0 0.0 1.7 0.00 0.00 0.00 78 1021.7
20260901165956 81 0 0.0 6.1 0.00 0.00 0.00 78 1021.8